Location: M�nchen Volkssternwarte
(48.1219°N, 11.6071°E)
Time: 09:23:37
(UTC+02:00)

ISS - Visible Passes

Search period start: 26 April 2018 00:00
Search period end: 06 May 2018 00:00
Orbit: 403 x 406 km, 51.6° (Epoch: 26 April)

Date Brightness Start Highest point End Pass type
(mag) Time Alt. Az. Time Alt. Az. Time Alt. Az.
03 May -1.7 05:11:28 10° S 05:13:54 20° SE 05:16:22 10° E visible
04 May -1.2 04:20:31 10° SSE 04:21:48 12° SE 04:23:05 10° ESE visible
05 May -2.9 05:02:22 10° SW 05:05:26 38° SSE 05:08:30 10° ENE visible
